This is the latest recevied weather packets stored in our database for station/object KD8UTJ. If no packets are shown the sender has not sent any weather packets the latest 10 day(s).
| Time | Temp. | Humidity | Pressure | Rain* | Wind** | Luminosity | Snow |
|---|---|---|---|---|---|---|---|
| 1778162823 | 26.67° C | 75% | 1018.3 hPa | 0 mm | - | 524 W/m² | - |
| 1778162521 | 26.67° C | 74% | 1018.5 hPa | 0 mm | - | 509 W/m² | - |
| 1778162217 | 26.67° C | 73% | 1018.4 hPa | 0 mm | - | 497 W/m² | - |
| 1778161915 | 26.67° C | 71% | 1018.6 hPa | 0 mm | - | 483 W/m² | - |
| 1778161610 | 26.67° C | 72% | 1018.4 hPa | 0 mm | - | 468 W/m² | - |
| 1778161307 | 26.11° C | 73% | 1018.5 hPa | 0 mm | - | 454 W/m² | - |
| 1778161003 | 26.11° C | 74% | 1018.5 hPa | 0 mm | - | 438 W/m² | - |
| 1778160701 | 26.11° C | 74% | 1018.6 hPa | 0 mm | - | 422 W/m² | - |
| 1778160398 | 26.11° C | 75% | 1018.6 hPa | 0 mm | - | 408 W/m² | - |
| 1778160093 | 25.56° C | 77% | 1018.6 hPa | 0 mm | - | 392 W/m² | - |
| 1778159791 | 25.56° C | 78% | 1018.5 hPa | 0 mm | - | 376 W/m² | - |
| 1778159488 | 25.56° C | 80% | 1018.5 hPa | 0 mm | - | 363 W/m² | - |
| 1778159185 | 25.56° C | 80% | 1018.4 hPa | 0 mm | - | 346 W/m² | - |
| 1778158883 | 25° C | 80% | 1018.4 hPa | 0 mm | - | 315 W/m² | - |
| 1778158581 | 25° C | 81% | 1018.4 hPa | 0 mm | - | 278 W/m² | - |
| 1778158278 | 24.44° C | 81% | 1018.4 hPa | 0 mm | - | 236 W/m² | - |
| 1778157974 | 24.44° C | 81% | 1018.5 hPa | 0 mm | - | 230 W/m² | - |
| 1778157672 | 24.44° C | 80% | 1018.5 hPa | 0 mm | - | 221 W/m² | - |
| 1778157371 | 24.44° C | 81% | 1018.5 hPa | 0 mm | - | 211 W/m² | - |
| 1778157067 | 23.89° C | 82% | 1018.8 hPa | 0 mm | - | 185 W/m² | - |
| 1778156762 | 23.89° C | 83% | 1018.8 hPa | 0 mm | - | 151 W/m² | - |
| 1778156458 | 23.89° C | 83% | 1018.7 hPa | 0 mm | - | 147 W/m² | - |
| 1778156154 | 23.89° C | 83% | 1018.7 hPa | 0 mm | - | 136 W/m² | - |
| 1778155850 | 23.33° C | 84% | 1018.8 hPa | 0 mm | - | 130 W/m² | - |
| 1778155546 | 23.33° C | 84% | 1018.7 hPa | 0 mm | - | 135 W/m² | - |
* Rain latest hour (hover to see other rain measurements)
** Current wind speed in m/s (hover to see current wind gust speed)